CW3742 Weather Reports


time (UTC)temp
C
wind
direction
speed
KPH
gust
KPH
rain 1hr
cm
rain 24hr
cm
rain mn
cm
humidity
%
barometer
mb
20260505223018 12 0 16.1 27.4 0.00 0.28 0.00 49 990.6
20260505220038 12 0 14.5 29.0 0.00 0.28 0.00 48 991.0
20260505213018 12 0 17.7 33.8 0.00 0.28 0.00 49 991.1
20260505210022 13 0 17.7 32.2 0.00 0.28 0.00 48 991.3
20260505193018 12 0 11.3 25.7 0.00 0.28 0.03 47 1010.0
20260505190016 12 0 8.0 22.5 0.00 0.28 0.03 51 1010.2
20260505183016 11 0 11.3 24.1 0.00 0.28 0.03 55 1010.2
20260505180016 11 0 9.7 20.9 0.00 0.28 0.03 56 1010.3
20260505173016 11 0 6.4 16.1 0.00 0.28 0.03 57 1010.6
20260505170037 11 0 8.0 19.3 0.00 0.28 0.03 61 1010.3
20260505163016 10 0 9.7 20.9 0.00 0.28 0.03 59 1010.3
20260505153016 10 0 6.4 16.1 0.00 0.28 0.03 57 1009.8
20260505123017 7 0.0 4.8 0.00 0.28 0.03 80 1009.7
20260505120016 7 90 1.6 4.8 0.03 0.28 0.03 75 1009.8
20260505113036 7 0 3.2 9.7 0.03 0.28 0.03 78 1010.0
20260505100016 8 0 4.8 12.9 0.00 0.25 0.00 70 1008.6
20260505093016 9 0 4.8 11.3 0.00 0.25 0.00 73 1007.9
20260505090016 10 0 8.0 17.7 0.00 0.25 0.00 66 1006.9
20260505083016 10 0 9.7 17.7 0.00 0.25 0.00 67 1006.6
20260505080016 9 0 8.0 14.5 0.00 0.25 0.00 72 1007.0
20260505073037 9 0 11.3 17.7 0.00 0.25 0.00 71 1007.1
20260505070016 9 0 8.0 14.5 0.00 0.25 0.00 70 1006.3
20260505063017 10 0 12.9 20.9 0.00 0.25 0.00 70 1005.9
20260505060036 10 0 12.9 19.3 0.00 0.25 0.00 65 1005.3
20260505053016 11 0 12.9 20.9 0.00 0.25 0.00 63 1004.0
20260505040016 13 0 12.9 20.9 0.00 0.25 0.25 62 1003.2
20260505033016 14 0 14.5 22.5 0.00 0.25 0.25 59 1003.5
20260505023017 16 0 14.5 25.7 0.00 0.25 0.25 57 1002.2
20260505020016 17 0 20.9 32.2 0.00 0.25 0.25 54 1001.3
20260505013036 18 0 11.3 24.1 0.00 0.25 0.25 62 1000.2
20260505010016 20 0 9.7 24.1 0.25 0.25 0.25 71 999.9
20260505003016 20 0 16.1 57.9 0.25 0.25 0.25 68 998.5
20260505000017 20 0 20.9 48.3 0.00 0.00 0.00 57 998.2
20260504233016 22 0 9.7 43.5 0.00 0.00 0.00 49 998.6
20260504230016 23 0 12.9 40.2 0.00 0.00 0.00 45 997.6